Flag for Canada Weather past 2 weeks in Whistler, British Columbia, Canada

Now
89 °F

Hot.


Feels Like: 85 °F
Forecast: 50 / 87 °F
Wind: 7 mph from South

Location: Squamish Airport

Current Time: Jul 31, 2015 at 7:09:11 PM

Latest Report: Jul 31, 2015 at 6:00 PM


Visibility: N/A

Pressure: 29.95 "Hg (27.77 "Hg at 674m altitude)

Humidity: 18%

Dew point: 40 °F

Location of WhistlerLocation

Historic Weather in Whistler — Graph

°F

Whistler temperature yesterday

Maximum temperature yesterday: 89 °F (at 5:00 PM)
Minimum temperature yesterday: 54 °F (at 6:00 AM)
Average temperature yesterday: 71 °F

Past Weeks' High & Low Weather Summary

 TemperatureHumidityPressure
High92 °F (Jul 19, 4:00 PM)100% (Jul 22, 12:00 AM)30.27 "Hg (Jul 22, 12:00 AM)
Low49 °F (Jul 27, 3:00 AM)18% (Jul 31, 6:00 PM)29.84 "Hg (Jul 22, 8:00 PM)
Average66 °F66%30.01 "Hg
* Reported Jul 16 6:00 PM — Jul 31 6:00 PM, Whistler, Weather by CustomWeather, © 2015

Note: Actual official high and low records may vary slightly from our data, if they occured in-between our weather recording intervals... More about our weather records

Advertising

Whistler weather history for previous 24 hours

 ConditionsComfort  
Time TempWeatherWind HumidityBarometerVisibility
6:00 PM
Fri, Jul 31
89 °FHot.7 mph18%29.95 "HgN/A
5:00 PM89 °FHot.8 mph20%29.96 "HgN/A
4:00 PM89 °FHot.8 mph23%29.98 "HgN/A
3:00 PM87 °FPleasantly warm.7 mph24%30.00 "HgN/A
2:00 PM86 °FPleasantly warm.9 mph27%30.01 "HgN/A
1:00 PM83 °FPleasantly warm.9 mph27%30.03 "HgN/A
12:00 PM82 °FPleasantly warm.7 mph30%30.05 "HgN/A
11:00 AM80 °FPleasantly warm.5 mph32%30.06 "HgN/A
10:00 AM75 °FMild.2 mph42%30.07 "HgN/A
9:00 AM69 °FMild.2 mph50%30.09 "HgN/A
8:00 AM64 °FMild.1 mph63%30.10 "HgN/A
7:00 AM58 °FCool.1 mph77%30.09 "HgN/A
6:00 AM56 °FCool.2 mph78%30.08 "HgN/A
5:00 AM57 °FCool.2 mph76%30.07 "HgN/A
4:00 AM58 °FCool.1 mph75%30.06 "HgN/A
3:00 AM60 °FCool.2 mph72%30.06 "HgN/A
2:00 AM60 °FCool.1 mph66%30.05 "HgN/A
1:00 AM61 °FCool.1 mph70%30.04 "HgN/A
12:00 AM64 °FMild.2 mph63%30.03 "HgN/A
11:00 PM
Thu, Jul 30
65 °FMild.2 mph65%30.03 "HgN/A
10:00 PM69 °FMild.1 mph57%30.02 "HgN/A
9:00 PM74 °FMild.3 mph43%29.99 "HgN/A
8:00 PM76 °FMild.No wind40%29.98 "HgN/A
7:00 PM87 °FPleasantly warm.5 mph25%29.98 "HgN/A
Weather by CustomWeather, © 2015

See weather overviewHow to use our weather pages